Temperature
25 24 24 24 20 18 20 22 25 25 25 25 25 24 24 23 22 21 20 21 21 21 21 20 20 20 20 20 20 20 19 19 19 19 19 19 19 19 19 19 19 19 19 19 19 19 19 19 19
24 24 24 23 19 19 20 23 25 25 26 26 25 25 24 22 21 20 20 21 21 21 21 20 20 20 20 20 20 19 19 19 19 19 19 19 19 18 18 18 18 18 18 18 18 19 19 19 19
24 24 23 19 19 19 22 24 25 26 27 26 26 25 24 22 21 21 21 21 21 21 21 20 20 20 20 19 19 19 19 19 19 18 18 18 18 18 18 18 18 18 18 18 18 18 18 19 19
23 23 22 18 20 21 23 25 26 26 27 26 26 24 23 22 22 22 21 21 21 21 20 20 20 20 19 19 19 19 19 19 18 18 18 18 18 18 18 18 18 18 18 18 18 18 18 18 18
22 22 19 18 19 22 24 26 27 26 26 26 25 23 22 23 23 22 21 21 21 21 20 20 20 20 19 19 19 19 19 18 18 18 18 18 18 18 18 18 18 18 18 18 18 18 18 18 18
22 20 18 18 20 23 25 27 26 26 25 25 24 22 21 22 23 22 21 21 21 21 20 20 20 19 19 19 19 19 19 18 18 18 18 18 17 17 17 17 18 18 18 18 18 18 18 18 18
21 18 19 20 22 23 26 27 26 25 25 25 24 22 21 21 22 22 22 21 21 21 21 20 20 19 19 19 19 19 19 18 18 18 18 18 17 17 17 17 17 17 18 18 18 18 18 18 18
22 19 21 21 22 23 26 26 26 26 26 26 26 22 21 22 22 21 21 21 21 21 21 21 20 20 20 19 19 19 19 18 18 18 18 18 18 17 17 17 17 17 17 17 18 18 18 18 18
22 19 19 21 23 24 26 25 26 27 26 26 26 26 25 23 22 21 21 21 21 21 21 21 21 20 20 19 19 19 19 18 18 18 18 18 17 17 17 17 17 17 17 17 18 18 18 18 18
22 18 20 23 24 24 25 26 26 26 25 25 26 25 24 23 22 21 21 21 21 21 21 21 21 21 20 20 19 19 19 19 18 18 18 18 17 17 17 17 17 17 17 17 17 17 17 17 18
21 20 22 24 26 26 26 26 26 25 24 25 25 24 23 23 22 22 22 22 22 22 22 21 21 21 20 20 20 19 19 19 18 18 18 18 18 17 17 17 17 17 17 17 17 17 17 17 17
21 22 24 25 26 26 27 27 26 25 26 27 27 26 24 23 23 23 22 22 22 22 22 21 21 21 20 20 20 19 19 19 18 18 18 18 18 18 17 17 17 17 17 17 17 17 17 17 17
21 22 25 26 26 27 27 27 27 26 27 27 26 26 25 24 24 24 23 23 23 22 22 22 21 21 21 20 20 19 19 19 19 18 18 18 18 17 17 17 17 17 17 17 17 17 17 17 17
22 23 24 25 26 27 26 27 26 26 27 26 25 25 25 25 25 24 23 23 23 23 23 22 21 21 21 20 20 20 19 19 19 18 18 18 17 17 17 17 17 17 17 16 16 16 16 16 16
24 22 22 24 25 26 27 26 26 27 26 25 25 25 25 25 25 25 25 24 24 23 23 22 21 21 21 20 20 19 19 18 18 18 18 17 17 17 17 17 17 16 16 16 16 16 16 16 16
22 22 21 22 24 26 26 24 25 27 25 25 25 25 25 25 25 25 25 24 24 23 23 22 21 21 20 20 19 19 19 18 18 18 18 17 17 17 17 17 16 16 16 16 16 16 16 16 16
20 20 21 22 24 25 25 24 25 27 26 25 24 24 24 25 25 25 25 25 24 23 23 22 21 21 20 20 19 19 18 18 18 18 17 17 17 17 16 16 16 16 16 16 16 16 16 15 15
19 20 21 21 23 24 24 23 25 27 26 25 25 24 24 24 25 25 25 25 24 23 23 22 21 21 20 19 19 18 18 18 17 17 17 17 17 16 16 16 16 16 15 15 15 15 15 14 14
21 21 20 21 23 24 23 23 25 26 26 25 25 24 24 25 26 26 25 24 23 23 22 22 22 21 20 19 19 18 18 17 17 17 17 16 16 16 16 15 15 15 15 14 14 14 14 14 13
21 20 20 21 23 24 23 23 23 24 25 26 26 25 26 25 25 25 24 23 23 23 22 22 22 21 20 19 19 18 18 17 17 17 16 16 16 15 15 15 15 14 14 14 14 14 13 13 12
21 20 20 21 22 23 24 22 22 23 26 27 28 28 27 26 26 25 24 23 23 22 22 22 21 20 19 19 18 18 17 17 16 16 15 15 15 15 14 14 14 13 13 13 13 12 12 11 10
20 21 22 22 21 20 22 20 20 21 23 24 26 27 27 27 26 25 24 23 22 22 22 21 20 19 19 19 18 18 17 17 16 16 15 14 14 14 13 13 13 12 12 12 11 10 10 9 9
21 22 22 23 22 20 20 20 19 20 22 23 23 27 27 26 26 24 24 23 21 21 20 20 19 19 18 18 18 17 17 16 16 15 14 14 13 13 12 12 12 11 11 10 10 9 9 8 8
23 23 21 18 17 19 20 20 19 20 22 22 23 25 26 25 24 22 21 21 20 19 19 19 18 18 18 17 16 16 16 15 15 14 13 13 12 12 11 11 11 10 10 9 8 8 7 7 7
22 19 18 19 17 18 19 20 19 20 21 21 21 22 23 23 21 20 19 18 18 18 18 17 18 17 17 16 16 15 15 14 14 13 12 12 11 11 10 10 9 9 8 8 7 7 6 6 6
20 19 17 18 18 18 20 20 20 21 21 21 21 20 20 20 19 18 18 18 17 17 17 17 17 16 16 15 15 14 14 13 12 12 11 11 10 10 9 8 8 8 8 7 6 6 6 5 5
21 19 18 17 18 18 18 20 20 20 19 19 18 18 17 17 17 17 16 16 16 16 16 16 15 15 14 14 13 13 12 12 11 11 10 10 9 9 8 8 7 7 7 6 6 6 5 5 5
21 20 16 16 17 17 19 19 18 18 17 17 16 16 16 16 16 16 15 15 15 15 15 15 14 14 13 13 12 12 11 10 10 9 9 9 8 8 7 7 7 6 6 6 5 5 5 5 5
21 21 18 16 16 17 17 17 18 17 16 16 15 15 15 15 15 15 15 15 15 14 14 14 13 13 12 11 11 10 10 9 9 8 8 8 7 7 7 6 6 6 5 5 5 5 5 5 4
22 21 18 17 17 16 16 16 17 16 15 15 15 15 15 15 14 14 14 14 14 13 13 13 12 11 11 10 9 9 9 8 8 7 7 7 6 6 6 6 5 5 5 5 5 4 4 4 4
Wind_Speed
7 6 1 3 5 4 3 5 4 3 2 2 7 10 10 5 4 4 4 15 17 15 16 18 20 20 19 19 18 18 18 17 17 16 16 15 15 15 14 14 13 13 12 11 9 8 8 7 6
4 3 3 5 4 2 6 4 3 4 6 8 9 10 8 6 8 11 8 15 17 16 16 17 20 20 20 19 19 19 18 17 17 16 15 14 14 14 13 13 12 11 10 9 8 7 6 5 4
4 1 3 3 3 6 5 3 2 2 5 8 6 6 7 9 12 10 11 18 15 14 15 19 21 20 20 19 19 19 18 17 16 16 15 14 13 13 12 12 11 10 9 8 7 5 4 3 2
2 4 4 2 8 8 6 6 5 2 2 4 8 7 5 7 9 12 19 18 17 13 16 19 21 21 20 20 19 18 18 17 17 16 15 14 13 12 12 11 10 9 8 7 6 4 3 1 1
3 4 1 4 8 8 7 10 10 7 5 5 10 7 5 5 18 22 20 18 17 12 14 18 20 20 20 20 19 18 18 17 16 15 14 13 13 12 12 11 10 9 8 7 5 4 2 2 3
3 4 2 6 9 9 8 9 7 6 7 7 10 8 4 13 22 21 19 17 15 14 13 17 20 20 20 20 19 18 18 17 16 15 14 13 13 12 11 11 10 9 8 7 5 4 4 4 5
4 4 5 6 7 9 8 3 5 7 9 7 9 8 6 12 17 20 18 17 15 14 13 14 17 18 19 19 19 18 18 17 16 15 14 13 12 12 11 11 10 9 8 7 6 6 5 6 6
6 3 4 4 6 7 5 1 4 8 7 7 7 11 10 14 16 17 17 16 15 13 12 12 14 16 16 17 18 18 18 17 16 15 14 13 12 12 11 11 11 10 9 8 7 7 6 7 7
2 1 5 5 4 6 5 1 2 1 6 4 3 7 14 20 18 18 16 13 13 13 11 11 11 13 15 15 16 17 17 16 16 15 14 13 12 12 12 11 11 10 10 9 8 8 7 8 9
6 5 8 7 5 6 8 4 5 2 5 4 6 10 18 19 19 20 20 19 17 16 15 13 12 12 14 14 15 14 14 15 15 14 14 14 13 13 12 12 13 12 11 10 9 8 8 8 9
8 8 7 9 11 9 8 5 3 9 5 9 15 18 20 19 19 19 20 20 20 19 18 16 15 14 14 10 13 12 11 12 13 15 16 15 13 12 11 10 11 11 10 9 7 7 7 7 9
6 9 9 11 13 10 7 5 3 8 10 15 22 25 23 22 22 21 21 21 19 19 20 18 17 15 14 12 11 11 10 10 10 14 16 13 8 8 8 9 10 10 9 7 6 5 7 7 8
9 12 15 16 15 13 9 7 6 9 12 18 22 25 26 24 22 20 19 20 19 21 21 21 19 18 14 11 9 11 10 11 13 14 15 15 8 6 7 7 8 8 9 7 5 4 3 2 2
9 10 11 11 12 9 9 7 2 7 13 19 23 25 25 25 22 18 18 20 21 22 21 20 20 19 15 13 11 9 11 12 13 13 14 16 12 8 6 4 5 5 7 7 5 3 3 2 3
8 10 13 11 8 7 3 7 5 8 13 19 21 21 22 21 20 22 22 20 20 20 19 19 20 18 17 15 12 10 11 12 10 11 13 14 12 10 7 4 3 4 6 7 6 5 5 4 4
6 5 7 11 8 8 2 9 11 8 13 17 19 19 19 17 19 20 20 17 17 17 18 18 19 18 17 13 11 8 10 10 9 11 11 12 11 11 8 4 3 5 7 6 4 4 4 5 4
4 3 6 11 9 6 4 9 11 8 14 16 18 19 18 17 17 17 18 18 20 19 19 18 15 17 16 12 9 7 7 7 8 9 9 10 11 12 9 5 5 7 6 4 4 5 4 4 4
6 5 7 9 9 6 8 13 15 10 13 17 17 18 18 18 21 18 17 18 19 18 17 17 16 17 15 12 9 7 6 5 6 7 9 12 12 13 11 7 7 7 5 5 5 5 5 4 3
5 7 10 13 12 8 12 15 18 16 11 14 17 18 19 22 23 17 16 18 17 16 17 18 19 18 15 11 10 8 7 5 5 6 11 13 14 14 11 7 6 6 5 4 4 3 5 4 4
8 11 13 14 13 7 8 11 12 12 10 13 17 18 19 17 14 16 17 18 20 21 20 19 18 16 13 9 7 6 7 6 5 5 9 12 14 13 11 8 5 5 5 6 6 4 3 3 4
11 12 15 14 14 8 5 9 9 9 5 5 9 12 14 17 18 18 19 20 19 19 19 16 14 12 11 11 10 10 7 5 4 6 6 8 13 14 13 10 7 5 5 5 5 5 4 3 4
12 14 15 14 9 8 1 4 10 8 9 7 7 7 9 12 14 16 18 19 18 15 12 12 12 11 11 11 12 13 9 7 5 5 5 6 10 12 13 11 9 6 5 5 4 5 3 3 2
14 15 10 8 4 3 5 1 9 8 9 11 10 9 8 9 12 15 16 15 13 12 12 12 11 10 9 9 11 10 8 7 7 7 8 7 6 8 10 10 8 6 5 5 4 4 3 2 2
12 5 3 4 5 2 6 2 8 7 9 10 8 5 3 5 8 10 11 13 13 13 13 12 12 10 9 10 10 11 12 12 11 9 7 6 5 4 7 9 8 6 4 4 3 2 2 1 1
4 5 3 4 4 6 6 2 8 10 9 8 6 1 3 8 13 14 15 14 14 14 12 11 11 10 9 9 9 10 11 11 11 9 7 7 5 4 5 6 5 4 4 3 3 2 0 1 2
7 11 9 7 6 6 4 4 5 7 6 6 7 9 11 13 14 14 14 14 13 12 11 11 11 10 9 10 9 9 10 7 6 7 7 6 6 6 6 6 5 5 4 3 3 1 2 2 3
7 7 11 9 5 2 6 5 5 9 12 13 13 14 14 14 14 15 14 13 12 11 10 10 11 10 10 10 10 10 9 9 8 8 7 6 6 6 6 5 4 3 3 3 2 2 4 4 4
11 10 7 7 6 5 5 3 4 6 7 10 12 13 13 14 14 14 13 13 12 11 11 11 11 11 10 10 9 10 9 9 9 9 8 8 6 5 5 4 3 2 1 2 1 2 3 3 3
1 4 6 7 7 8 3 2 3 1 4 10 11 12 13 14 13 13 11 11 11 11 12 12 10 10 9 9 9 10 9 8 8 8 8 7 6 5 4 3 2 2 4 4 5 4 5 5 5
2 3 6 6 6 7 7 2 6 4 6 10 12 12 13 12 11 11 11 10 10 10 10 11 10 9 8 8 9 9 8 9 8 7 7 6 6 5 4 5 6 7 8 8 7 7 6 6 6
Wind_Direction
296 286 121 61 46 38 269 249 220 206 182 178 128 117 118 110 147 162 127 142 138 144 147 141 136 134 132 130 128 126 123 120 117 115 112 109 107 107 107 109 111 112 112 111 108 105 100 95 90
304 311 46 56 80 338 280 251 238 222 158 135 117 117 104 81 95 116 125 142 142 143 145 143 138 135 133 131 129 128 127 125 123 120 118 115 113 112 111 112 114 114 112 110 107 102 95 85 73
289 354 73 72 162 194 234 247 240 287 149 144 121 92 94 117 124 137 145 144 142 142 144 145 139 136 135 133 132 131 131 130 128 127 125 123 121 120 119 119 120 120 119 117 114 109 100 81 46
27 40 52 94 242 231 218 266 269 259 152 127 111 83 83 121 134 141 143 148 144 143 146 145 139 137 137 136 135 135 135 135 134 133 131 129 128 128 128 128 129 129 129 129 127 124 117 89 339
65 79 65 275 259 255 241 238 242 219 169 126 102 91 65 78 123 137 147 150 145 142 144 145 141 140 140 140 140 140 140 139 138 136 135 133 133 134 134 136 138 140 141 142 144 148 164 221 273
60 81 133 255 268 274 267 234 215 178 144 126 107 103 93 130 135 147 151 149 145 143 142 145 145 145 145 145 144 144 144 143 142 141 140 139 139 140 141 143 146 149 152 157 167 184 210 240 266
137 134 205 236 270 284 278 232 171 166 152 152 129 107 126 149 149 152 149 143 143 145 145 146 151 151 150 150 149 149 149 149 149 148 148 147 148 150 152 154 156 161 166 175 189 207 230 253 275
169 137 245 243 259 274 285 246 184 165 158 142 128 135 158 172 155 148 143 141 143 147 152 152 153 154 154 155 156 156 157 157 157 157 157 158 160 163 166 167 170 174 182 192 205 220 240 262 280
153 115 240 237 241 275 321 320 243 198 124 138 132 145 157 158 150 142 142 141 149 156 161 159 159 159 159 160 165 164 165 167 167 167 167 167 170 174 177 179 183 187 195 205 214 227 246 267 282
160 195 231 223 235 282 303 261 197 110 122 108 89 109 142 155 154 153 156 160 164 167 172 170 167 167 166 170 169 172 173 176 176 176 177 179 182 188 190 193 193 197 205 214 222 233 250 269 282
187 212 239 263 269 277 286 265 185 141 163 159 147 145 155 161 163 164 167 170 172 173 174 175 174 174 175 174 170 179 182 183 187 188 189 190 193 200 200 194 199 204 211 218 232 245 249 260 275
250 258 260 269 275 276 255 226 185 173 188 174 158 155 164 170 173 174 173 175 173 174 179 178 178 177 181 175 178 183 185 190 196 201 199 194 194 195 193 191 196 200 206 208 227 241 244 250 264
257 265 269 268 271 264 258 235 201 204 182 168 159 161 173 178 179 177 174 174 177 180 182 180 180 180 181 177 183 186 191 194 200 201 202 196 191 191 191 196 197 206 206 197 201 219 225 220 240
250 266 280 288 289 274 264 269 199 218 164 165 169 175 181 183 179 173 174 177 182 185 184 180 181 182 180 182 187 187 192 194 197 200 198 192 186 181 178 174 175 191 191 182 173 161 129 97 78
256 277 293 291 288 279 299 305 263 201 168 173 181 186 188 186 181 181 180 179 182 184 183 181 181 182 182 185 190 189 189 187 187 187 182 176 169 162 153 143 146 155 152 140 120 100 83 70 55
340 330 305 296 289 286 336 277 274 199 181 186 190 194 195 196 193 189 181 174 176 178 179 182 181 181 182 181 184 182 179 172 171 166 159 152 144 138 129 120 116 113 110 106 99 83 71 54 41
346 291 290 299 286 278 271 262 269 209 191 199 198 201 202 202 205 196 183 176 177 179 176 177 174 175 176 171 169 167 160 156 152 143 131 123 120 121 112 98 87 89 79 66 78 63 69 51 23
249 268 282 276 287 301 276 263 268 250 205 205 204 205 206 206 210 201 186 180 177 176 175 175 170 174 170 161 150 141 132 130 123 118 114 110 105 105 100 87 77 78 73 60 60 64 53 53 20
225 268 278 279 287 292 269 265 268 263 232 211 207 207 209 212 213 200 186 181 176 176 177 179 175 177 170 165 157 145 137 123 107 102 106 105 101 98 92 84 69 67 74 71 67 64 52 33 20
243 261 272 284 283 268 276 278 271 267 239 208 199 204 209 212 211 200 189 183 183 183 183 183 180 176 171 160 142 123 118 106 98 98 90 95 98 98 95 87 80 68 74 64 52 56 61 27 33
246 237 249 257 281 309 312 315 316 307 289 231 205 200 200 197 200 193 187 187 183 183 184 180 173 161 152 138 124 117 103 92 87 86 83 86 96 98 99 95 88 75 78 78 69 66 78 50 23
249 240 235 244 258 279 327 290 297 302 319 298 268 245 216 199 193 186 181 181 181 177 165 154 151 148 141 140 145 146 145 140 136 126 113 98 98 102 104 102 98 90 88 89 80 76 80 86 40
234 244 234 235 228 295 332 292 285 309 302 289 284 270 240 210 187 179 175 169 154 142 137 133 129 126 127 133 138 135 127 122 125 121 118 108 100 106 111 109 104 98 98 100 92 88 81 100 126
223 227 2 50 72 323 272 252 287 275 260 272 281 284 246 180 150 137 125 117 115 113 112 114 113 109 115 121 126 135 135 135 135 134 132 124 113 104 112 111 105 109 112 112 108 100 92 120 160
175 116 35 343 359 259 269 239 259 277 280 263 264 253 86 113 122 122 118 115 112 108 107 107 108 105 105 112 118 128 132 135 140 142 139 134 126 122 122 115 115 120 126 118 110 93 37 252 237
199 150 162 194 220 269 313 225 267 309 354 47 76 81 80 93 105 109 109 107 104 101 98 97 100 100 102 103 103 109 115 116 120 123 129 134 133 130 130 128 130 133 132 130 139 167 252 252 248
174 183 175 155 183 242 281 280 329 10 39 55 68 78 82 85 92 94 93 91 91 90 88 95 98 96 96 100 101 101 103 105 107 106 106 113 119 125 126 132 137 151 167 189 192 230 258 265 264
176 166 114 135 172 230 273 315 323 349 45 69 80 89 93 93 91 90 89 90 90 93 92 86 92 96 95 96 100 104 99 101 103 102 101 104 108 115 127 131 142 170 244 281 288 294 302 314 313
93 137 141 147 160 166 192 299 343 316 83 98 97 100 104 103 103 102 101 101 102 101 101 100 97 97 97 97 98 97 96 99 100 101 103 105 104 108 108 107 88 51 37 35 38 26 18 14 359
161 174 153 163 204 163 147 159 2 24 57 93 102 107 111 112 110 109 108 105 102 105 105 106 103 101 101 100 96 93 92 93 94 94 92 89 84 74 70 64 67 70 67 60 54 39 28 15 355
Height
1531 1530 1530 1529 1531 1541 1540 1527 1513 1512 1512 1510 1509 1511 1515 1519 1524 1531 1528 1530 1533 1535 1538 1541 1543 1544 1545 1547 1548 1549 1550 1551 1552 1554 1555 1556 1557 1558 1559 1560 1561 1562 1563 1564 1565 1566 1566 1567 1567
1529 1529 1530 1528 1539 1551 1541 1520 1513 1509 1509 1509 1511 1511 1514 1519 1520 1523 1526 1531 1534 1535 1538 1540 1543 1544 1545 1547 1548 1549 1550 1551 1552 1554 1555 1556 1557 1558 1559 1561 1562 1563 1563 1564 1565 1566 1566 1567 1567
1528 1528 1529 1530 1539 1544 1532 1515 1511 1509 1510 1508 1510 1512 1515 1519 1521 1524 1527 1531 1534 1536 1538 1541 1542 1544 1545 1547 1548 1549 1550 1551 1552 1554 1555 1556 1558 1559 1560 1561 1562 1563 1564 1564 1565 1566 1566 1567 1567
1527 1528 1528 1534 1536 1527 1519 1513 1509 1511 1511 1509 1507 1513 1517 1521 1522 1525 1528 1532 1534 1536 1539 1541 1543 1544 1546 1547 1548 1549 1550 1551 1553 1554 1555 1557 1558 1559 1560 1561 1562 1563 1564 1564 1565 1566 1566 1567 1567
1526 1526 1532 1537 1531 1518 1512 1510 1508 1509 1508 1507 1506 1514 1519 1522 1523 1526 1529 1532 1534 1536 1539 1541 1543 1544 1546 1547 1548 1550 1551 1552 1553 1554 1555 1557 1558 1559 1560 1561 1562 1563 1563 1564 1565 1565 1566 1566 1567
1526 1526 1538 1541 1527 1512 1506 1504 1504 1506 1506 1506 1506 1513 1521 1522 1523 1527 1530 1534 1536 1537 1539 1542 1544 1545 1546 1547 1549 1550 1551 1552 1553 1554 1556 1557 1558 1559 1560 1561 1562 1562 1563 1564 1564 1565 1565 1566 1567
1525 1528 1534 1529 1522 1513 1502 1500 1502 1504 1503 1504 1504 1512 1521 1524 1525 1528 1531 1534 1537 1538 1540 1542 1543 1545 1547 1548 1549 1550 1551 1552 1553 1554 1555 1556 1558 1559 1560 1560 1561 1562 1562 1563 1564 1564 1565 1566 1566
1521 1524 1525 1523 1518 1512 1501 1500 1501 1501 1500 1503 1504 1508 1516 1522 1525 1528 1531 1534 1536 1538 1540 1542 1543 1545 1546 1548 1549 1550 1551 1552 1553 1554 1555 1556 1557 1558 1559 1560 1560 1561 1562 1562 1563 1564 1564 1565 1565
1519 1526 1528 1519 1513 1507 1501 1500 1501 1500 1500 1502 1503 1505 1509 1518 1524 1527 1530 1533 1535 1538 1539 1541 1543 1544 1546 1547 1548 1549 1550 1551 1552 1553 1554 1555 1556 1557 1558 1559 1560 1560 1561 1562 1562 1563 1564 1564 1565
1515 1524 1517 1507 1504 1503 1501 1499 1499 1500 1500 1501 1503 1507 1512 1516 1521 1524 1526 1529 1532 1534 1537 1539 1541 1543 1544 1546 1547 1548 1549 1550 1551 1552 1553 1554 1556 1557 1557 1558 1559 1559 1560 1561 1562 1562 1563 1564 1564
1509 1511 1505 1502 1500 1500 1500 1498 1497 1497 1501 1499 1501 1506 1511 1515 1518 1520 1523 1525 1528 1532 1534 1536 1539 1541 1542 1544 1545 1546 1547 1549 1550 1551 1552 1553 1555 1555 1556 1557 1558 1559 1560 1560 1561 1561 1562 1562 1563
1505 1501 1501 1498 1497 1497 1497 1497 1496 1495 1495 1495 1496 1500 1506 1510 1512 1515 1518 1522 1525 1528 1530 1533 1536 1538 1540 1542 1543 1544 1546 1547 1548 1549 1550 1552 1553 1553 1554 1555 1556 1557 1558 1559 1559 1560 1560 1561 1561
1503 1500 1497 1495 1495 1493 1492 1492 1491 1492 1491 1493 1495 1497 1500 1504 1506 1510 1515 1519 1522 1524 1526 1528 1531 1534 1537 1539 1541 1542 1544 1545 1546 1548 1549 1550 1551 1552 1553 1554 1555 1555 1556 1556 1557 1557 1558 1558 1559
1498 1495 1493 1492 1490 1488 1488 1486 1487 1487 1489 1492 1493 1493 1495 1498 1501 1505 1510 1513 1517 1519 1522 1525 1527 1531 1534 1536 1538 1540 1542 1543 1545 1546 1547 1548 1549 1550 1551 1552 1553 1553 1554 1554 1555 1555 1556 1556 1556
1496 1496 1492 1488 1487 1485 1485 1486 1482 1483 1486 1489 1490 1490 1493 1495 1498 1499 1502 1505 1510 1514 1518 1521 1524 1528 1531 1534 1536 1538 1539 1541 1542 1544 1545 1546 1548 1549 1550 1550 1551 1551 1552 1552 1553 1553 1553 1553 1553
1496 1499 1503 1490 1485 1482 1488 1494 1480 1482 1484 1486 1487 1489 1491 1492 1493 1495 1497 1501 1506 1511 1515 1518 1520 1523 1527 1530 1533 1536 1537 1538 1540 1542 1543 1545 1546 1548 1549 1549 1550 1550 1550 1550 1550 1551 1550 1550 1550
1503 1509 1505 1496 1482 1482 1485 1489 1477 1479 1481 1482 1484 1485 1487 1488 1490 1491 1493 1496 1500 1504 1509 1513 1515 1519 1522 1526 1529 1532 1534 1535 1538 1540 1542 1543 1545 1546 1547 1548 1549 1549 1549 1548 1548 1548 1547 1547 1546
1511 1507 1504 1500 1486 1484 1487 1485 1475 1473 1477 1478 1479 1481 1482 1483 1483 1486 1489 1492 1496 1500 1504 1507 1510 1513 1517 1520 1523 1527 1530 1532 1535 1537 1539 1540 1542 1544 1545 1546 1546 1546 1547 1546 1546 1545 1544 1543 1542
1499 1502 1505 1496 1485 1487 1487 1483 1473 1467 1470 1472 1474 1476 1477 1476 1477 1481 1484 1488 1492 1496 1499 1502 1503 1506 1510 1513 1516 1520 1524 1527 1530 1533 1535 1537 1539 1541 1542 1543 1543 1544 1544 1544 1543 1542 1541 1539 1537
1497 1503 1502 1493 1482 1483 1484 1481 1471 1465 1464 1464 1466 1468 1470 1471 1473 1476 1479 1483 1485 1489 1492 1496 1498 1501 1505 1508 1512 1516 1520 1524 1526 1529 1531 1532 1534 1536 1538 1539 1540 1541 1541 1540 1540 1539 1538 1536 1534
1495 1500 1498 1496 1484 1481 1483 1485 1476 1465 1461 1460 1461 1461 1463 1464 1465 1468 1471 1475 1479 1484 1488 1491 1495 1498 1503 1506 1510 1513 1517 1520 1523 1525 1527 1529 1531 1533 1534 1536 1537 1538 1538 1537 1536 1535 1534 1533 1531
1496 1485 1485 1487 1493 1498 1488 1505 1485 1472 1465 1461 1459 1458 1458 1458 1459 1461 1464 1469 1473 1479 1484 1489 1493 1497 1501 1504 1506 1507 1510 1514 1518 1522 1524 1526 1528 1529 1531 1532 1533 1534 1535 1534 1533 1532 1531 1530 1529
1483 1475 1478 1480 1487 1495 1493 1501 1494 1475 1470 1462 1456 1455 1455 1455 1456 1457 1460 1464 1470 1476 1482 1487 1492 1496 1499 1502 1504 1507 1509 1513 1516 1519 1521 1523 1525 1527 1528 1529 1531 1532 1532 1531 1531 1530 1529 1527 1526
1468 1473 1478 1487 1497 1509 1497 1499 1500 1480 1468 1460 1453 1452 1452 1452 1455 1458 1461 1465 1470 1476 1482 1487 1491 1495 1499 1501 1503 1506 1509 1511 1514 1516 1518 1520 1522 1524 1525 1527 1528 1529 1529 1528 1528 1527 1526 1525 1524
1468 1488 1508 1508 1518 1514 1494 1495 1494 1469 1460 1456 1453 1451 1451 1452 1455 1459 1464 1469 1473 1479 1484 1489 1493 1496 1498 1500 1502 1506 1508 1510 1512 1514 1515 1517 1519 1521 1523 1525 1526 1526 1526 1526 1525 1525 1524 1523 1522
1469 1480 1507 1517 1519 1511 1493 1496 1486 1468 1459 1454 1454 1455 1456 1458 1461 1465 1469 1474 1479 1484 1488 1492 1494 1497 1499 1501 1503 1505 1506 1508 1509 1511 1513 1515 1517 1519 1521 1523 1524 1524 1524 1524 1523 1522 1521 1520 1519
1467 1475 1475 1495 1501 1509 1504 1489 1478 1469 1464 1462 1462 1463 1464 1467 1469 1472 1476 1480 1484 1489 1492 1495 1497 1499 1500 1501 1503 1504 1505 1507 1508 1510 1512 1514 1517 1518 1520 1521 1522 1522 1522 1522 1521 1520 1519 1518 1516
1452 1461 1482 1496 1510 1516 1504 1497 1495 1482 1475 1470 1470 1471 1472 1474 1476 1479 1482 1485 1489 1492 1494 1498 1500 1501 1502 1502 1503 1504 1506 1507 1509 1511 1513 1514 1516 1518 1519 1520 1520 1520 1520 1520 1519 1518 1516 1514 1513
1456 1461 1471 1486 1493 1508 1513 1509 1488 1485 1478 1475 1475 1476 1478 1479 1481 1483 1486 1489 1491 1493 1493 1497 1501 1503 1503 1504 1505 1506 1507 1508 1510 1512 1513 1515 1516 1517 1518 1518 1518 1518 1518 1517 1516 1515 1513 1511 1508
1450 1456 1466 1484 1489 1493 1503 1510 1488 1486 1481 1478 1479 1480 1482 1484 1485 1487 1489 1490 1492 1493 1494 1496 1499 1503 1505 1506 1506 1507 1508 1509 1511 1512 1514 1515 1516 1517 1517 1517 1517 1516 1515 1514 1513 1511 1509 1507 1504